Change the Weather History Date:

Thursday, April 12, 2012

  Actual Average (KMML) Record (KMML)
Temperature  
Mean Temperature 46 °F -  
Max Temperature 58 °F 55 °F 84 °F (1968)
Min Temperature 35 °F 33 °F 14 °F (1950)
Degree Days  
Heating Degree Days 18    
Moisture  
Dew Point 22 °F    
Average Humidity 39    
Maximum Humidity 72    
Minimum Humidity 25    
Precipitation  
Precipitation 0.00 in - - ()
Sea Level Pressure  
Sea Level Pressure 30.05 in    
Wind  
Wind Speed 11 mph (South)    
Max Wind Speed 18 mph    
Max Gust Speed 25 mph    
Visibility 10 miles    
Events Rain , Thunderstorm    
Averages and records for this station are not official NWS values.
T = Trace of Precipitation, MM = Missing Value Source: NWS Daily Summary

Daily Weather History Graph

Daily Weather History Graph

Search for Another Location

Airport or City:

Trip Planner

Search our weather history database for the weather conditions in past years. The results will help you decide how hot, cold, wet, or windy it might be!

Date:

Astronomy

Apr. 12, 2012 Rise Set
Actual Time 6:43 AM CDT 8:03 PM CDT
Civil Twilight 6:13 AM CDT 8:33 PM CDT
Nautical Twilight 5:37 AM CDT 9:10 PM CDT
Astronomical Twilight 4:58 AM CDT 9:48 PM CDT
Moon 1:59 AM CDT (4/12) 11:31 AM CDT (4/12)
Length of Visible Light 14h 20m
Length of Day
13h 20m
Waning Gibbous, 58% of the Moon is Illuminated
Apr 12
Waning Gibbous
Apr 13
Last Quarter
Apr 21
New
Apr 29
First Quarter
May 5
Full

Hourly Weather History & Observations

Time (CDT) Temp. Windchill Dew Point Humidity Pressure Visibility Wind Dir Wind Speed Gust Speed Precip Events Conditions
12:13 AM 38.3 °F 33.9 °F 14.9 °F 39% 30.18 in 10.0 mi South 5.8 mph - N/A   Clear
12:54 AM 37.9 °F 33.5 °F 14.5 °F 38% 30.17 in 10.0 mi South 5.8 mph - N/A   Clear
1:13 AM 39.2 °F 34.2 °F 14.9 °F 37% 30.16 in 10.0 mi South 6.9 mph - N/A   Clear
1:33 AM 37.8 °F 32.5 °F 15.3 °F 40% 30.16 in 10.0 mi South 6.9 mph - N/A   Clear
1:53 AM 37.9 °F 32.1 °F 14.9 °F 39% 30.15 in 10.0 mi South 8.1 mph - N/A   Clear
2:13 AM 38.3 °F 32.5 °F 14.9 °F 39% 30.15 in 10.0 mi South 8.1 mph - N/A   Clear
2:33 AM 37.6 °F 32.3 °F 14.5 °F 39% 30.14 in 10.0 mi South 6.9 mph - N/A   Clear
2:53 AM 38.3 °F 32.5 °F 14.4 °F 38% 30.14 in 10.0 mi South 8.1 mph - N/A   Clear
3:13 AM 37.9 °F 31.5 °F 14.0 °F 38% 30.13 in 10.0 mi South 9.2 mph - N/A   Clear
3:53 AM 37.8 °F 31.8 °F 13.3 °F 37% 30.13 in 10.0 mi South 8.1 mph - N/A   Clear
4:13 AM 37.4 °F 30.8 °F 13.5 °F 38% 30.13 in 10.0 mi South 9.2 mph - N/A   Clear
4:33 AM 37.8 °F 30.2 °F 13.3 °F 37% 30.12 in 10.0 mi South 11.5 mph - N/A   Clear
4:53 AM 37.0 °F 31.0 °F 14.0 °F 39% 30.13 in 10.0 mi South 8.1 mph - N/A   Clear
5:13 AM 36.7 °F 29.4 °F 14.5 °F 40% 30.13 in 10.0 mi South 10.4 mph - N/A   Clear
5:33 AM 36.7 °F 29.4 °F 14.5 °F 40% 30.13 in 10.0 mi South 10.4 mph - N/A   Clear
5:53 AM 35.8 °F 26.5 °F 14.9 °F 43% 30.13 in 10.0 mi SSW 15.0 mph - N/A   Clear
6:13 AM 35.8 °F 26.5 °F 14.9 °F 43% 30.13 in 10.0 mi SSW 15.0 mph - N/A   Clear
6:33 AM 35.4 °F 26.8 °F 14.9 °F 43% 30.13 in 10.0 mi SSW 12.7 mph - N/A   Clear
6:53 AM 36.7 °F 28.4 °F 15.3 °F 42% 30.12 in 10.0 mi South 12.7 mph - N/A   Clear
7:13 AM 37.4 °F 29.8 °F 16.3 °F 42% 30.12 in 10.0 mi South 11.5 mph - N/A   Clear
7:33 AM 39.2 °F 31.6 °F 17.4 °F 41% 30.11 in 10.0 mi South 12.7 mph 18.4 mph N/A   Clear
7:53 AM 41.2 °F 34.1 °F 18.9 °F 41% 30.11 in 10.0 mi South 12.7 mph - N/A   Clear
8:13 AM 43.3 °F 37.7 °F 19.9 °F 39% 30.11 in 10.0 mi South 10.4 mph - N/A   Clear
8:33 AM 45.1 °F 39.9 °F 21.0 °F 38% 30.11 in 10.0 mi South 10.4 mph - N/A   Clear
8:53 AM 46.0 °F 40.2 °F 21.0 °F 37% 30.11 in 10.0 mi South 12.7 mph 19.6 mph N/A Thunderstorm Clear
9:13 AM 47.7 °F - 21.6 °F 36% 30.10 in 10.0 mi South 12.7 mph 18.4 mph N/A   Clear
9:33 AM 51.4 °F - 23.0 °F 33% 30.09 in 10.0 mi South 15.0 mph 21.9 mph N/A   Mostly Cloudy
9:53 AM 52.5 °F - 22.1 °F 31% 30.09 in 10.0 mi South 13.8 mph 19.6 mph N/A   Overcast
10:13 AM 52.3 °F - 22.3 °F 31% 30.10 in 10.0 mi South 15.0 mph - N/A   Scattered Clouds
10:33 AM 52.3 °F - 21.7 °F 30% 30.10 in 10.0 mi South 13.8 mph 18.4 mph N/A   Mostly Cloudy
10:53 AM 52.7 °F - 21.4 °F 29% 30.11 in 10.0 mi South 13.8 mph 17.3 mph N/A   Overcast
11:13 AM 54.5 °F - 21.9 °F 28% 30.10 in 10.0 mi South 16.1 mph 20.7 mph N/A   Overcast
11:34 AM 54.1 °F - 22.5 °F 29% 30.10 in 10.0 mi SSW 11.5 mph 21.9 mph N/A   Overcast
11:53 AM 53.6 °F - 23.4 °F 31% 30.09 in 10.0 mi South 13.8 mph 19.6 mph N/A   Overcast
12:13 PM 52.9 °F - 21.0 °F 29% 30.08 in 10.0 mi South 13.8 mph 21.9 mph N/A   Overcast
12:33 PM 53.4 °F - 21.4 °F 29% 30.08 in 10.0 mi South 12.7 mph 21.9 mph N/A   Overcast
12:53 PM 55.4 °F - 22.1 °F 27% 30.07 in 10.0 mi South 16.1 mph 21.9 mph N/A   Scattered Clouds
1:13 PM 54.9 °F - 22.5 °F 28% 30.07 in 10.0 mi South 15.0 mph 24.2 mph N/A   Scattered Clouds
1:33 PM 55.2 °F - 21.2 °F 27% 30.06 in 10.0 mi SSE 17.3 mph 25.3 mph N/A   Mostly Cloudy
1:53 PM 55.2 °F - 21.4 °F 27% 30.04 in 10.0 mi SSE 18.4 mph 24.2 mph N/A   Mostly Cloudy
2:13 PM 56.1 °F - 22.1 °F 27% 30.04 in 10.0 mi SSE 18.4 mph 23.0 mph N/A   Mostly Cloudy
2:34 PM 58.1 °F - 21.7 °F 25% 30.03 in 10.0 mi South 15.0 mph 20.7 mph N/A   Mostly Cloudy
2:53 PM 56.3 °F - 21.0 °F 25% 30.01 in 10.0 mi SE 16.1 mph - N/A   Mostly Cloudy
3:13 PM 55.4 °F - 19.6 °F 25% 30.01 in 10.0 mi SSE 13.8 mph 24.2 mph N/A   Mostly Cloudy
3:33 PM 54.7 °F - 20.8 °F 27% 29.99 in 10.0 mi SSE 15.0 mph 21.9 mph N/A   Overcast
3:53 PM 54.7 °F - 22.6 °F 29% 29.99 in 10.0 mi SSE 12.7 mph - N/A   Overcast
4:13 PM 53.6 °F - 25.3 °F 34% 29.99 in 10.0 mi SSE 10.4 mph 19.6 mph N/A   Overcast
4:33 PM 54.7 °F - 23.9 °F 30% 29.98 in 10.0 mi SSE 13.8 mph 19.6 mph N/A   Overcast
4:53 PM 54.5 °F - 23.2 °F 30% 29.97 in 10.0 mi South 13.8 mph 19.6 mph N/A   Overcast
5:13 PM 54.3 °F - 23.9 °F 31% 29.96 in 10.0 mi SE 17.3 mph 21.9 mph N/A   Overcast
5:33 PM 54.5 °F - 24.6 °F 31% 29.96 in 10.0 mi SSE 13.8 mph 19.6 mph N/A   Overcast
5:53 PM 51.4 °F - 31.8 °F 47% 29.96 in 7.0 mi SSE 12.7 mph - N/A Rain Light Rain
6:13 PM 52.2 °F - 30.7 °F 44% 29.96 in 10.0 mi SE 9.2 mph - N/A Rain Light Rain
6:33 PM 51.8 °F - 32.2 °F 47% 29.96 in 10.0 mi SSE 6.9 mph - N/A   Light Drizzle
6:53 PM 52.3 °F - 27.3 °F 38% 29.96 in 10.0 mi South 15.0 mph 20.7 mph N/A   Overcast
7:13 PM 52.2 °F - 26.1 °F 36% 29.96 in 10.0 mi South 12.7 mph - N/A   Overcast
7:33 PM 52.3 °F - 27.3 °F 38% 29.95 in 10.0 mi South 13.8 mph 21.9 mph N/A   Overcast
7:53 PM 50.9 °F - 30.6 °F 46% 29.95 in 10.0 mi South 13.8 mph 21.9 mph N/A   Overcast
8:13 PM 49.1 °F - 32.0 °F 52% 29.95 in 10.0 mi SSE 13.8 mph - N/A   Light Drizzle
8:33 PM 47.8 °F - 33.3 °F 57% 29.95 in 10.0 mi SSE 10.4 mph - N/A   Light Drizzle
8:53 PM 47.8 °F - 33.4 °F 57% 29.96 in 10.0 mi SSE 9.2 mph - N/A   Overcast
9:13 PM 48.4 °F - 32.2 °F 54% 29.96 in 10.0 mi SSE 8.1 mph - N/A   Overcast
9:33 PM 48.6 °F - 32.0 °F 53% 29.96 in 10.0 mi SSE 13.8 mph 19.6 mph N/A   Overcast
9:53 PM 48.6 °F - 32.0 °F 53% 29.95 in 10.0 mi SSE 13.8 mph 21.9 mph N/A   Overcast
10:13 PM 48.2 °F - 32.0 °F 54% 29.95 in 10.0 mi SSE 13.8 mph 19.6 mph N/A   Overcast
10:33 PM 48.0 °F - 32.0 °F 54% 29.95 in 10.0 mi SSE 15.0 mph 20.7 mph N/A Rain Light Rain
10:53 PM 44.8 °F 38.7 °F 36.1 °F 72% 29.94 in 10.0 mi SSE 12.7 mph - N/A Thunderstorm Drizzle
11:13 PM 44.6 °F 39.2 °F 36.0 °F 72% 29.93 in 10.0 mi SSE 10.4 mph - N/A   Overcast
11:53 PM 45.7 °F 39.5 °F 34.9 °F 66% 29.91 in 10.0 mi SSE 13.8 mph - N/A   Mostly Cloudy